{"data":{"norad_id":68394,"epoch":"2026-09-20T04:09:33.710112Z","epoch_age_seconds":75842,"freshness":"FRESH","line1":"1 68394U 26063Q   26263.17330683  .00015543  00000+0  48251-3 0  9997","line2":"2 68394  97.2829  44.1188 0001922 186.5054 173.6164 15.33461704 27706","mean_motion":15.33461704,"eccentricity":0.0001922,"inclination_deg":97.2829,"raan_deg":44.1188,"arg_perigee_deg":186.5054,"mean_anomaly_deg":173.6164,"bstar":0.00048251,"rev_number":2770,"period_min":93.905181736446,"perigee_km":464.17812980014,"apogee_km":466.80882135495,"semimajor_km":6843.6304755775,"source":"CELESTRAK","updated_at":"2026-09-20T09:00:43.896455Z"}}